Location: Vihti�l�
(61.3833°N, 23.0667°E)
Time: 20:45:47
(UTC+00:00)

NOSS 3-4 (A) - Visible Passes

Search period start: 13 April 2021 00:00
Search period end: 23 April 2021 00:00
Orbit: 866 x 1346 km, 63.4° (Epoch: 13 April)

Date Brightness Start Highest point End Pass type
(mag) Time Alt. Az. Time Alt. Az. Time Alt. Az.
13 Apr 3.7 00:22:52 10° WNW 00:29:19 85° NNE 00:36:38 10° ESE visible
13 Apr 3.9 02:13:42 10° WNW 02:20:09 54° SW 02:27:24 10° SSE visible
13 Apr 3.5 19:56:33 10° SW 20:02:21 56° SE 20:08:46 10° ENE visible
13 Apr 3.6 21:46:59 10° WSW 21:53:07 82° NNW 22:00:02 10° ENE visible
13 Apr 3.8 23:38:03 10° WNW 23:44:26 79° NNE 23:51:38 10° E visible
14 Apr 3.7 01:28:55 10° WNW 01:35:27 67° SW 01:42:49 10° SE visible
14 Apr 3.7 19:12:12 10° SSW 19:17:47 43° SE 19:23:52 10° ENE visible
14 Apr 3.5 21:02:10 10° WSW 21:08:15 90° SSW 21:15:05 10° ENE visible
14 Apr 3.8 22:53:12 10° W 22:59:30 76° N 23:06:37 10° E visible
15 Apr 3.7 00:44:08 10° WNW 00:50:40 79° SSW 00:58:04 10° SE visible
15 Apr 3.4 20:17:27 10° SW 20:23:27 78° SSE 20:30:10 10° ENE visible
15 Apr 3.8 22:08:20 10° W 22:14:34 75° N 22:21:36 10° E visible
15 Apr 3.7 23:59:20 10° WNW 00:05:50 90° SW 00:13:11 10° ESE visible
16 Apr 4.0 01:50:10 10° WNW 01:56:32 48° SW 02:03:39 10° SSE visible
16 Apr 3.4 19:32:50 10° SW 19:38:44 64° SE 19:45:17 10° ENE visible
16 Apr 3.7 21:23:28 10° W 21:29:39 78° N 21:36:36 10° ENE visible
16 Apr 3.7 23:14:32 10° WNW 23:20:57 82° NNE 23:28:13 10° ESE visible
17 Apr 3.8 01:05:22 10° WNW 01:11:52 59° SW 01:19:10 10° SE visible
17 Apr 3.6 18:48:23 10° SSW 18:54:06 51° SE 19:00:24 10° ENE visible
17 Apr 3.6 20:38:38 10° WSW 20:44:45 85° NNW 20:51:38 10° ENE visible
17 Apr 3.8 22:29:42 10° WNW 22:36:03 77° N 22:43:13 10° E visible
18 Apr 3.7 00:20:36 10° WNW 00:27:08 72° SSW 00:34:31 10° SE visible
18 Apr 3.5 19:53:52 10° WSW 19:59:56 85° SSE 20:06:42 10° ENE visible
18 Apr 3.8 21:44:50 10° W 21:51:07 75° N 21:58:12 10° E visible
18 Apr 3.6 23:35:49 10° WNW 23:42:20 84° SSW 23:49:42 10° ESE visible
19 Apr 4.1 01:26:39 10° WNW 01:32:53 41° SW 01:39:48 10° SSE visible
19 Apr 3.5 19:09:11 10° SW 19:15:09 73° SSE 19:21:48 10° ENE visible
19 Apr 3.8 20:59:58 10° W 21:06:11 76° N 21:13:11 10° E visible
19 Apr 3.7 22:51:01 10° WNW 22:57:29 87° NNE 23:04:47 10° ESE visible
20 Apr 3.9 00:41:50 10° WNW 00:48:16 52° SW 00:55:28 10° SSE visible
20 Apr 3.7 20:15:07 10° WSW 20:21:17 80° NNW 20:28:12 10° ENE visible
20 Apr 3.8 22:06:11 10° WNW 22:12:35 80° NNE 22:19:48 10° E visible
20 Apr 3.7 23:57:03 10° WNW 00:03:34 64° SW 00:10:55 10° SE visible
21 Apr 4.6 01:48:07 10° WNW 01:53:41 27° WSW 01:59:44 10° S visible
21 Apr 3.6 19:30:18 10° WSW 19:36:24 88° NNW 19:43:15 10° ENE visible
21 Apr 3.8 21:21:20 10° W 21:27:39 76° N 21:34:48 10° E visible
21 Apr 3.6 23:12:16 10° WNW 23:18:49 77° SSW 23:26:12 10° SE visible
22 Apr 4.3 01:03:10 10° WNW 01:09:12 35° SW 01:15:52 10° S visible
22 Apr 3.8 20:36:29 10° W 20:42:44 75° N 20:49:47 10° E visible
22 Apr 3.7 22:27:29 10° WNW 22:33:59 88° SSW 22:41:21 10° ESE visible
